Simultaneous Nadir Overpasses (SNOs) Predictions

Prediction of SNOs between NOAA-19 and TERRA Satellite Orbit:

Table of predicted SNOs for the next 14.0 days since TLE Epoch: 1/3/2015
Index Date (NOAA-19) Time (NOAA-19) Lat,Lon (NOAA-19) SZA (NOAA-19 ) Date (TERRA) Time (TERRA) Lat,Lon (TERRA) SZA (TERRA ) Distance(km) Time Diff (sec)
1 01/03/2015 20:13:28 71.41,-120.82 94.10 01/03/2015 20:14:25 71.39,-120.83 94.08 2.49 57
2 01/03/2015 21:04:28 -71.30, 46.63 86.02 01/03/2015 21:03:55 -71.27, 46.62 86.04 2.64 33
3 01/06/2015 01:48:03 -71.35, -24.33 86.21 01/06/2015 01:48:19 -71.33, -24.39 86.23 3.03 16
4 01/06/2015 02:39:00 71.12, 143.33 93.57 01/06/2015 02:37:47 71.19, 143.02 93.63 13.09 73
5 01/08/2015 06:31:38 -71.41, -95.29 86.42 01/08/2015 06:32:46 -71.41, -95.38 86.42 3.03 68
6 01/08/2015 07:22:38 71.31, 72.13 93.48 01/08/2015 07:22:13 71.32, 72.12 93.49 1.72 25
7 01/10/2015 12:06:14 71.40, 1.11 93.26 01/10/2015 12:06:44 71.37, 1.07 93.23 2.94 30
8 01/10/2015 12:57:12 -71.27, 168.59 86.88 01/10/2015 12:56:14 -71.28, 168.55 86.87 2.06 58
9 01/12/2015 16:50:01 72.05, -71.00 93.57 01/12/2015 16:51:09 71.94, -69.13 93.46 65.36 68
10 01/12/2015 17:40:47 -71.34, 97.60 87.15 01/12/2015 17:40:48 -71.36, 97.53 87.14 3.22 1
11 01/12/2015 18:31:34 70.52, -93.73 92.02 01/12/2015 18:30:27 70.62, -95.99 92.11 84.36 67
12 01/14/2015 22:24:23 -71.47, 26.50 87.40 01/14/2015 22:25:25 -71.47, 26.54 87.41 1.70 62
13 01/14/2015 23:15:24 71.34,-166.02 92.46 01/14/2015 23:14:53 71.32,-166.05 92.44 2.41 31




NCC Satellite Simultaneous Nadir Overpasses (SNOs) Prediction Service
